Weather History for Trinidad, CO

Change the Weather History Date:

Sunday, November 24, 2013

  Actual Average Record
Temperature  
Mean Temperature 27 °F 37 °F  
Max Temperature 33 °F 52 °F 76 °F (1981)
Min Temperature 21 °F 22 °F -2 °F (1993)
Degree Days  
Heating Degree Days 38 28  
Month to date heating degree days 538 553  
Since 1 July heating degree days 999 1054  
Cooling Degree Days 0 0  
Month to date cooling degree days 0 0  
Year to date cooling degree days 1068 719  
Moisture  
Dew Point 19 °F    
Average Humidity 76    
Maximum Humidity 92    
Minimum Humidity 59    
Precipitation  
Precipitation 0.00 in 0.02 in 0.62 in (1992)
Month to date precipitation 0.10 0.58  
Year to date precipitation 9.74 13.18  
Sea Level Pressure  
Sea Level Pressure 30.13 in    
Wind  
Wind Speed 14 mph (WSW)    
Max Wind Speed 29 mph    
Max Gust Speed 37 mph    
Visibility 7 miles    
Events Fog , Snow    
T = Trace of Precipitation, MM = Missing Value Source: NWS Daily Summary

Daily Weather History Graph

Daily Weather History Graph

Search for Another Location

Airport:

Trip Planner

Search our weather history database for the weather conditions in past years. The results will help you decide how hot, cold, wet, or windy it might be!

Date:

Astronomy

Nov. 24, 2013 Rise Set
Actual Time 6:46 AM MST 4:41 PM MST
Civil Twilight 6:17 AM MST 5:10 PM MST
Nautical Twilight 5:45 AM MST 5:42 PM MST
Astronomical Twilight 5:14 AM MST 6:13 PM MST
Moon 11:05 PM MST (11/24) 11:38 AM MST (11/24)
Length of Visible Light 10h 52m
Length of Day
9h 55m
Waning Gibbous, 60% of the Moon is Illuminated
Nov 24
Waning Gibbous
Nov 25
Last Quarter
Dec 2
New
Dec 9
First Quarter
Dec 17
Full

Hourly Weather History & Observations

Time (MST) Temp. Windchill Dew Point Humidity Pressure Visibility Wind Dir Wind Speed Gust Speed Precip Events Conditions
12:54 AM 21.0 °F 14.6 °F 19.0 °F 92% 30.43 in 10.0 mi NW 4.6 mph - N/A   Mostly Cloudy
1:54 AM 23.0 °F 14.7 °F 19.0 °F 85% 30.40 in 10.0 mi WSW 6.9 mph - N/A   Mostly Cloudy
2:41 AM 26.1 °F 14.5 °F 19.0 °F 75% 30.30 in 2.5 mi WSW 13.8 mph - 0.00 in Snow Light Snow
2:54 AM 24.1 °F 13.1 °F 19.0 °F 81% 30.38 in 2.5 mi WSW 11.5 mph - 0.00 in Snow Light Snow
3:03 AM 24.1 °F 13.7 °F 18.0 °F 77% 30.29 in 7.0 mi WSW 10.4 mph - 0.00 in Snow Light Snow
3:54 AM 24.1 °F 18.2 °F 19.0 °F 81% 30.35 in 10.0 mi South 4.6 mph - 0.00 in   Overcast
4:54 AM 24.1 °F - 19.9 °F 84% 30.34 in 10.0 mi Calm Calm - N/A   Overcast
5:08 AM 24.1 °F 18.2 °F 19.9 °F 84% 30.24 in 2.0 mi West 4.6 mph - 0.00 in Snow Light Snow
5:12 AM 23.0 °F 13.1 °F 19.0 °F 85% 30.24 in 0.8 mi West 9.2 mph - 0.00 in Snow Light Snow
5:31 AM 21.9 °F 14.5 °F 19.9 °F 92% 30.23 in 2.0 mi WNW 5.8 mph - 0.00 in Snow Light Snow
5:39 AM 21.9 °F 13.4 °F 19.0 °F 89% 30.23 in 8.0 mi West 6.9 mph - 0.00 in   Overcast
5:54 AM 23.0 °F - 18.0 °F 81% 30.30 in 10.0 mi Calm Calm - 0.00 in   Overcast
6:54 AM 24.1 °F 16.0 °F 16.0 °F 71% 30.27 in 10.0 mi WNW 6.9 mph - N/A   Overcast
7:54 AM 24.1 °F 14.4 °F 16.0 °F 71% 30.25 in 10.0 mi WSW 9.2 mph - N/A   Overcast
8:54 AM 24.1 °F 10.1 °F 16.0 °F 71% 30.23 in 10.0 mi WSW 18.4 mph - N/A   Scattered Clouds
9:54 AM 26.1 °F 11.6 °F 17.1 °F 69% 30.20 in 10.0 mi WSW 21.9 mph 35.7 mph N/A   Mostly Cloudy
10:54 AM 27.0 °F 14.3 °F 17.1 °F 66% 30.17 in 10.0 mi WSW 17.3 mph 21.9 mph N/A   Mostly Cloudy
11:54 AM 28.0 °F 13.9 °F 18.0 °F 66% 30.10 in 10.0 mi SW 23.0 mph 34.5 mph N/A   Scattered Clouds
12:54 PM 28.9 °F 16.5 °F 18.0 °F 64% 30.08 in 10.0 mi WSW 18.4 mph 26.5 mph N/A   Mostly Cloudy
1:54 PM 28.9 °F 16.1 °F 18.0 °F 64% 30.04 in 10.0 mi WSW 19.6 mph - N/A   Mostly Cloudy
2:54 PM 30.0 °F 18.3 °F 19.0 °F 64% 30.01 in 10.0 mi WSW 17.3 mph - N/A   Overcast
3:54 PM 32.0 °F 21.6 °F 19.9 °F 61% 30.00 in 10.0 mi SW 15.0 mph - N/A   Partly Cloudy
4:54 PM 26.1 °F 13.6 °F 17.1 °F 69% 30.02 in 10.0 mi WSW 16.1 mph - N/A   Clear
5:54 PM 26.1 °F 12.7 °F 17.1 °F 69% 30.01 in 10.0 mi WSW 18.4 mph - N/A   Mostly Cloudy
6:54 PM 26.1 °F 12.0 °F 17.1 °F 69% 29.99 in 10.0 mi WSW 20.7 mph - N/A   Overcast
7:54 PM 25.0 °F 10.6 °F 17.1 °F 72% 29.98 in 10.0 mi WSW 20.7 mph - N/A   Mostly Cloudy
8:54 PM 25.0 °F 11.3 °F 17.1 °F 72% 29.99 in 10.0 mi WSW 18.4 mph - N/A   Overcast
9:40 PM 26.1 °F 14.0 °F 18.0 °F 71% 29.92 in 10.0 mi WSW 15.0 mph - N/A   Overcast
9:52 PM 24.8 °F 11.9 °F 19.4 °F 80% 29.93 in 1.5 mi West 16.1 mph - 0.00 in Snow Light Snow
9:54 PM 25.0 °F - 19.9 °F 81% 29.99 in 0.8 mi North - - 0.00 in Snow Light Snow
9:59 PM 24.1 °F - 21.0 °F 88% 29.92 in 0.2 mi North - - 0.00 in Fog , Snow Snow
10:24 PM 24.1 °F - 21.9 °F 91% 29.92 in 0.8 mi North - - 0.00 in Snow Light Snow
10:42 PM 25.0 °F - 21.9 °F 88% 29.92 in 1.0 mi North - - 0.00 in Snow Light Snow
10:54 PM 26.1 °F - 24.1 °F 92% 29.98 in 1.8 mi North - - 0.00 in Snow Light Snow
11:02 PM 27.0 °F - 25.0 °F 92% 29.92 in 3.0 mi North - - 0.00 in Snow Light Snow
11:54 PM 32.0 °F - 28.9 °F 88% 29.96 in 10.0 mi North - - 0.00 in   Overcast